sat.trackr.live / text

‹ back to catalog

SITRO-AIS 41

NORAD 61760 · 2024-199AB

PAYLOAD ACTIVE UNKNOWN

§ Identity

Operator
Country
CIS
Launch date
2024-11-04
Launch site
VOSTO
Launch vehicle
Mass (kg)
RCS (m²)

External: N2YO · Heavens-Above · Gunter

§ Orbital elements

Epoch: 2026-09-22T22:14:51.972288Z

Period
90.31 min
Inclination
97.2676°
Eccentricity
0.0004089
Mean motion
15.94510578 rev/d
Perigee alt
287.0 km
Apogee alt
292.4 km
Semi-major
6,667.8 km
B*
8.2566e-4
RAAN
150.1177°
Arg perigee
154.2234°
Mean anomaly
205.9246°
Rev number
15,318

§ Raw data

SITRO-AIS 411 61760U 24199AB  26265.92699042  .00309319  39173-4  82566-3 0  99992 61760  97.2676 150.1177 0004089 154.2234 205.9246 15.94510578153184

JSON: /api/v1/satellites/61760 · /tle

For live sub-satellite position, see the globe view (requires WebGL).

§ Visibility from observer

Set your observer location to see the next 7 days of passes ≥ 10°. The values pass through the URL so the page stays shareable.

No JS? Fill the form by hand. The geolocation button needs JavaScript.

§ Radio — SatNOGS DB

ModeDescriptionDownlinkUplink
GMSK USP Mode U - GMSK2k4 - USP 401.105 MHz

1 transmitter · refreshed weekly from db.satnogs.org